Hamilton, OH

4:45 AM EDT on May 29, 2017 (GMT -0400)
Butler County Regional

Weather History for KHAO - March, 2013

Change the Weather History Date:

Friday, March 29, 2013

  Actual Average (KLUK) Record (KLUK)
Temperature  
Mean Temperature 40 °F -  
Max Temperature 55 °F 61 °F 82 °F (1998)
Min Temperature 25 °F 43 °F 19 °F (2015)
Degree Days  
Heating Degree Days 25    
Moisture  
Dew Point 28 °F    
Average Humidity 62    
Maximum Humidity 89    
Minimum Humidity 34    
Precipitation  
Precipitation 0.00 in - - ()
Sea Level Pressure  
Sea Level Pressure 30.30 in    
Wind  
Wind Speed 1 mph (WNW)    
Max Wind Speed 7 mph    
Max Gust Speed -    
Visibility 9 miles    
Events      
Averages and records for this station are not official NWS values.
T = Trace of Precipitation, MM = Missing Value Source: NWS Daily Summary

Daily Weather History Graph

Daily Weather History Graph

Search for Another Location

Airport or City:

Trip Planner

Search our weather history database for the weather conditions in past years. The results will help you decide how hot, cold, wet, or windy it might be!

Date:

Astronomy

Mar. 29, 2013 Rise Set
Actual Time 7:26 AM EDT 7:59 PM EDT
Civil Twilight 6:59 AM EDT 8:26 PM EDT
Nautical Twilight 6:28 AM EDT 8:58 PM EDT
Astronomical Twilight 5:55 AM EDT 9:30 PM EDT
Moon 10:57 PM EDT 8:36 AM EDT
Length of Visible Light 13h 26m
Length of Day
12h 32m
Waning Gibbous, 93% of the Moon is Illuminated
Mar 29
Waning Gibbous
Apr 3
Last Quarter
Apr 10
New
Apr 18
First Quarter
Apr 25
Full

Hourly Weather History & Observations

Time (EDT) Temp. Windchill Dew Point Humidity Pressure Visibility Wind Dir Wind Speed Gust Speed Precip Events Conditions
12:53 AM 30.0 °F - 26.1 °F 85% 30.35 in 10.0 mi Calm Calm - N/A   Clear
1:53 AM 28.0 °F - 24.1 °F 85% 30.34 in 10.0 mi Calm Calm - N/A   Clear
2:53 AM 28.0 °F - 24.1 °F 85% 30.35 in 9.0 mi Calm Calm - N/A   Clear
3:53 AM 26.1 °F - 21.9 °F 84% 30.34 in 9.0 mi Calm Calm - N/A   Clear
4:53 AM 26.1 °F - 21.9 °F 84% 30.33 in 8.0 mi Calm Calm - N/A   Clear
5:53 AM 26.1 °F - 23.0 °F 88% 30.34 in 7.0 mi Calm Calm - N/A   Clear
6:53 AM 25.0 °F - 21.9 °F 88% 30.34 in 7.0 mi Calm Calm - N/A   Clear
7:53 AM 27.0 °F - 24.1 °F 89% 30.35 in 6.0 mi Calm Calm - N/A   Overcast
8:53 AM 30.9 °F - 28.0 °F 89% 30.35 in 6.0 mi Calm Calm - N/A   Overcast
9:53 AM 39.0 °F - 32.0 °F 76% 30.37 in 7.0 mi Calm Calm - N/A   Overcast
10:53 AM 45.0 °F - 28.0 °F 52% 30.36 in 10.0 mi Calm Calm - N/A   Overcast
11:53 AM 50.0 °F - 28.9 °F 44% 30.35 in 10.0 mi Variable 3.5 mph - N/A   Partly Cloudy
12:53 PM 52.0 °F - 28.0 °F 40% 30.32 in 10.0 mi Variable 3.5 mph - N/A   Overcast
1:53 PM 54.0 °F - 28.0 °F 37% 30.30 in 10.0 mi West 4.6 mph - N/A   Clear
2:53 PM 55.0 °F - 28.9 °F 37% 30.27 in 10.0 mi Variable 3.5 mph - N/A   Clear
2:56 PM 53.6 °F - 28.4 °F 38% 30.25 in 1.8 mi SW 6.9 mph - N/A   Haze
3:10 PM 53.6 °F - 28.4 °F 38% 30.25 in 10.0 mi SW 3.5 mph - N/A   Mostly Cloudy
3:53 PM 55.9 °F - 28.9 °F 36% 30.25 in 10.0 mi Variable 5.8 mph - N/A   Overcast
4:53 PM 55.0 °F - 28.0 °F 35% 30.24 in 10.0 mi NNW 5.8 mph - N/A   Overcast
5:53 PM 55.0 °F - 28.0 °F 35% 30.23 in 10.0 mi Calm Calm - N/A   Overcast
6:53 PM 55.0 °F - 27.0 °F 34% 30.23 in 10.0 mi Calm Calm - N/A   Overcast
7:53 PM 51.1 °F - 30.0 °F 44% 30.23 in 10.0 mi NW 5.8 mph - N/A   Overcast
8:53 PM 45.0 °F 42.6 °F 32.0 °F 60% 30.24 in 10.0 mi North 4.6 mph - N/A   Mostly Cloudy
9:53 PM 42.1 °F - 32.0 °F 67% 30.25 in 10.0 mi Calm Calm - N/A   Scattered Clouds
10:53 PM 39.0 °F - 32.0 °F 76% 30.27 in 10.0 mi Calm Calm - N/A   Partly Cloudy
11:53 PM 39.0 °F - 33.1 °F 79% 30.26 in 10.0 mi Calm Calm - N/A   Clear